Regional Weather Roundup
Issued by NWS

Home | Current Version | Previous Version | Text Only | Print | Product List | Glossary Off
Versions: 1 2 3 4 5 6 7 8 9 10 11 12 13 14 15 16 17 18 19 20 21 22 23 24 25 26 27 28 29 30 31 32 33 34 35 36 37 38 39 40 41 42 43 44 45 46 47 48 49 50

000
ASUS44 KMEG 142200
RWRTN
TENNESSEE HOURLY STATE WEATHER ROUNDUP
NATIONAL WEATHER SERVICE MEMPHIS TN
500 PM CDT SUN SEP 14 2014

TNZ002-004-019-021-049-052-054-088>092-142300-
WEST TENNESSEE

CITY           SKY/WX    TMP DP  RH WIND       PRES   REMARKS
MEMPHIS INTL   PTSUNNY   77  56  48 NE8       30.16F
NWS MEMPHIS      N/A     75 N/A N/A MISG        N/A
JACKSON        SUNNY     77  57  50 CALM      30.17F
DYERSBURG      SUNNY     73  48  40 NE5       30.18F
PARIS          SUNNY     72  48  43 CALM      30.19S
$$

TNZ008-025-027-028-033-062-065-066-142300-
NORTH MIDDLE TENNESSEE

CITY           SKY/WX    TMP DP  RH WIND       PRES   REMARKS
NASHVILLE      MOSUNNY   79  56  45 N5        30.17F
CLARKSVILLE    SUNNY     76  54  46 NE6       30.18S
COOKEVILLE     SUNNY     75  63  64 NE5       30.18S
CROSSVILLE     MOSUNNY   74  60  61 NW7       30.21R
$$

TNZ061-075-076-078-094-096-097-142300-
SOUTH MIDDLE TENNESSEE

CITY           SKY/WX    TMP DP  RH WIND       PRES   REMARKS
FAYETTEVILLE     N/A     79  59  50 N7        30.15F
WINCHESTER     SUNNY     79  63  57 N6        30.16S
SHELBYVILLE    SUNNY     79  61  53 NE5       30.17S
$$

TNZ017-018-042-046-047-142300-
NORTHEAST TENNESSEE

CITY           SKY/WX    TMP DP  RH WIND       PRES   REMARKS
TRI CITIES     CLOUDY    70  63  78 CALM      30.20F
ELIZABETHTON   CLOUDY    66  61  82 CALM      30.21S
$$

TNZ012-013-036-069-073-074-142300-
CENTRAL EAST TENNESSEE

CITY           SKY/WX    TMP DP  RH WIND       PRES   REMARKS
KNOXVILLE      CLOUDY    75  64  68 CALM      30.16S
OAK RIDGE      MOSUNNY   76  64  66 VRB3      30.18S
GATLINBURG     CLOUDY    73  63  68 E3        30.17S
$$

TNZ083-085-099-142300-
SOUTHEAST TENNESSEE

CITY           SKY/WX    TMP DP  RH WIND       PRES   REMARKS
CHATTANOOGA    PTSUNNY   81  65  58 CALM      30.14F
$$

SKY/WX REPORTED AS FAIR MEANS FEW OR NO CLOUDS BELOW
12 THOUSAND FEET.




USA.gov is the U.S. government's official web portal to all federal, state and local government web resources and services.